QPF
0.00 0.00 0.00 0.00 0.00 0.00 0.00 0.00 0.00 0.01 0.01 0.01 0.01 0.00 0.00 0.00 0.00 0.00 0.00 0.00 0.00 0.00 0.00 0.00 0.01 0.03 0.04 0.03 0.02 0.02 0.01 0.01 0.01 0.03 0.03 0.04 0.05 0.06 0.06 0.05 0.04 0.05 0.03 0.03
0.00 0.00 0.00 0.00 0.00 0.00 0.00 0.00 0.00 0.00 0.00 0.00 0.00 0.00 0.00 0.00 0.00 0.00 0.00 0.00 0.00 0.00 0.00 0.00 0.00 0.00 0.01 0.01 0.01 0.01 0.01 0.02 0.03 0.03 0.02 0.04 0.09 0.12 0.13 0.11 0.09 0.07 0.04 0.03
0.00 0.00 0.00 0.00 0.00 0.00 0.00 0.00 0.00 0.00 0.00 0.00 0.00 0.00 0.00 0.00 0.00 0.00 0.00 0.00 0.00 0.00 0.00 0.00 0.00 0.00 0.00 0.01 0.01 0.02 0.02 0.04 0.07 0.11 0.18 0.24 0.28 0.23 0.16 0.11 0.09 0.07 0.06 0.06
0.00 0.00 0.00 0.00 0.00 0.00 0.00 0.00 0.00 0.00 0.00 0.00 0.00 0.00 0.00 0.01 0.02 0.02 0.01 0.00 0.00 0.00 0.00 0.00 0.00 0.01 0.00 0.00 0.00 0.01 0.02 0.05 0.11 0.26 0.47 0.60 0.53 0.36 0.20 0.13 0.11 0.08 0.08 0.09
0.00 0.00 0.00 0.00 0.00 0.00 0.00 0.00 0.00 0.00 0.00 0.00 0.00 0.00 0.02 0.05 0.09 0.08 0.04 0.01 0.00 0.00 0.00 0.00 0.00 0.01 0.01 0.01 0.01 0.01 0.02 0.07 0.15 0.33 0.58 0.76 0.82 0.71 0.51 0.35 0.22 0.16 0.14 0.15
0.00 0.00 0.00 0.00 0.00 0.00 0.00 0.00 0.00 0.00 0.00 0.00 0.00 0.01 0.07 0.12 0.10 0.09 0.05 0.02 0.00 0.00 0.00 0.00 0.00 0.01 0.02 0.01 0.02 0.02 0.04 0.08 0.14 0.26 0.43 0.60 0.75 0.80 0.72 0.57 0.42 0.29 0.22 0.20
0.00 0.00 0.00 0.00 0.00 0.00 0.00 0.00 0.00 0.00 0.01 0.02 0.02 0.05 0.12 0.10 0.07 0.07 0.05 0.02 0.01 0.00 0.00 0.00 0.01 0.01 0.02 0.02 0.02 0.03 0.05 0.08 0.12 0.19 0.27 0.38 0.46 0.55 0.56 0.51 0.40 0.31 0.25 0.24
0.00 0.00 0.00 0.00 0.00 0.00 0.00 0.00 0.00 0.01 0.01 0.04 0.05 0.15 0.21 0.14 0.09 0.07 0.03 0.01 0.02 0.02 0.02 0.03 0.03 0.03 0.03 0.03 0.04 0.05 0.06 0.06 0.09 0.11 0.16 0.21 0.24 0.30 0.35 0.34 0.28 0.22 0.19 0.18
0.00 0.00 0.00 0.00 0.00 0.00 0.00 0.00 0.00 0.00 0.01 0.02 0.07 0.19 0.20 0.12 0.08 0.05 0.03 0.03 0.04 0.06 0.07 0.06 0.06 0.05 0.04 0.05 0.06 0.06 0.06 0.06 0.07 0.08 0.09 0.11 0.13 0.16 0.19 0.20 0.18 0.17 0.17 0.17
0.00 0.00 0.00 0.00 0.00 0.00 0.00 0.00 0.00 0.02 0.03 0.05 0.09 0.14 0.11 0.07 0.06 0.05 0.04 0.05 0.09 0.14 0.15 0.13 0.10 0.09 0.07 0.06 0.06 0.06 0.07 0.07 0.07 0.06 0.06 0.07 0.09 0.11 0.14 0.15 0.15 0.16 0.16 0.16
0.00 0.00 0.00 0.00 0.00 0.00 0.00 0.00 0.01 0.02 0.03 0.06 0.11 0.13 0.10 0.11 0.10 0.10 0.11 0.14 0.18 0.25 0.28 0.23 0.17 0.15 0.14 0.10 0.08 0.09 0.09 0.07 0.06 0.06 0.06 0.07 0.07 0.08 0.09 0.09 0.10 0.11 0.12 0.12
0.00 0.00 0.00 0.00 0.00 0.00 0.00 0.01 0.01 0.04 0.04 0.06 0.11 0.14 0.14 0.16 0.19 0.19 0.22 0.30 0.35 0.38 0.35 0.28 0.27 0.27 0.26 0.21 0.19 0.21 0.20 0.15 0.12 0.11 0.10 0.08 0.08 0.09 0.11 0.11 0.11 0.11 0.10 0.09
0.00 0.00 0.00 0.00 0.00 0.00 0.00 0.01 0.01 0.03 0.04 0.06 0.11 0.16 0.20 0.23 0.25 0.23 0.28 0.38 0.43 0.41 0.32 0.27 0.30 0.30 0.28 0.28 0.28 0.28 0.30 0.24 0.19 0.15 0.12 0.10 0.11 0.12 0.12 0.12 0.13 0.11 0.11 0.10
0.00 0.00 0.00 0.00 0.00 0.00 0.00 0.00 0.01 0.01 0.03 0.05 0.09 0.17 0.20 0.23 0.27 0.26 0.30 0.38 0.40 0.33 0.24 0.20 0.16 0.16 0.17 0.19 0.21 0.21 0.24 0.26 0.24 0.22 0.20 0.18 0.16 0.14 0.14 0.14 0.13 0.12 0.11 0.09
0.00 0.00 0.00 0.00 0.00 0.00 0.00 0.00 0.00 0.00 0.01 0.04 0.06 0.10 0.14 0.18 0.21 0.24 0.27 0.26 0.20 0.13 0.08 0.06 0.05 0.04 0.06 0.08 0.10 0.10 0.12 0.14 0.17 0.18 0.15 0.15 0.14 0.13 0.13 0.13 0.11 0.11 0.10 0.08
0.00 0.00 0.00 0.00 0.00 0.00 0.00 0.00 0.00 0.00 0.00 0.02 0.03 0.06 0.07 0.08 0.10 0.12 0.11 0.09 0.07 0.04 0.03 0.01 0.01 0.00 0.01 0.01 0.01 0.02 0.03 0.04 0.05 0.05 0.05 0.04 0.05 0.07 0.07 0.06 0.05 0.05 0.05 0.05
0.00 0.00 0.00 0.00 0.00 0.00 0.00 0.00 0.00 0.00 0.00 0.01 0.02 0.02 0.02 0.03 0.03 0.04 0.04 0.04 0.03 0.02 0.01 0.00 0.00 0.00 0.00 0.00 0.00 0.00 0.00 0.00 0.00 0.01 0.01 0.01 0.01 0.01 0.01 0.01 0.01 0.02 0.02 0.02
0.00 0.00 0.00 0.00 0.00 0.00 0.00 0.00 0.00 0.00 0.00 0.00 0.00 0.00 0.01 0.01 0.01 0.01 0.01 0.01 0.02 0.01 0.00 0.00 0.00 0.00 0.00 0.00 0.00 0.00 0.00 0.00 0.00 0.00 0.00 0.00 0.00 0.01 0.01 0.01 0.01 0.01 0.01 0.00
0.00 0.00 0.00 0.00 0.00 0.00 0.00 0.00 0.00 0.00 0.00 0.00 0.00 0.00 0.00 0.00 0.00 0.00 0.00 0.00 0.00 0.00 0.00 0.00 0.00 0.00 0.00 0.00 0.00 0.00 0.00 0.00 0.00 0.00 0.00 0.00 0.00 0.00 0.00 0.00 0.00 0.00 0.00 0.00
0.00 0.00 0.00 0.00 0.00 0.00 0.00 0.00 0.00 0.00 0.00 0.00 0.00 0.00 0.00 0.00 0.01 0.00 0.00 0.00 0.00 0.00 0.00 0.00 0.00 0.00 0.00 0.00 0.00 0.00 0.00 0.00 0.00 0.00 0.00 0.00 0.00 0.00 0.01 0.01 0.00 0.00 0.00 0.00
0.00 0.00 0.00 0.00 0.00 0.00 0.00 0.00 0.00 0.00 0.00 0.00 0.00 0.00 0.00 0.00 0.00 0.00 0.00 0.00 0.00 0.00 0.00 0.00 0.00 0.00 0.00 0.00 0.00 0.00 0.00 0.00 0.00 0.00 0.00 0.00 0.00 0.00 0.01 0.02 0.01 0.00 0.00 0.00
0.00 0.00 0.00 0.00 0.00 0.00 0.00 0.00 0.00 0.00 0.00 0.00 0.00 0.00 0.00 0.00 0.00 0.00 0.00 0.00 0.00 0.00 0.00 0.00 0.00 0.00 0.00 0.00 0.00 0.00 0.00 0.00 0.00 0.00 0.00 0.00 0.00 0.01 0.01 0.02 0.01 0.00 0.00 0.01
0.00 0.00 0.00 0.00 0.00 0.00 0.00 0.00 0.00 0.00 0.00 0.00 0.00 0.00 0.00 0.00 0.00 0.00 0.00 0.00 0.00 0.00 0.00 0.00 0.00 0.00 0.00 0.00 0.00 0.00 0.00 0.00 0.00 0.00 0.01 0.00 0.00 0.01 0.00 0.01 0.00 0.01 0.01 0.01
0.00 0.00 0.00 0.00 0.00 0.00 0.00 0.00 0.00 0.00 0.00 0.00 0.00 0.00 0.00 0.00 0.00 0.00 0.00 0.00 0.00 0.00 0.00 0.00 0.00 0.00 0.00 0.00 0.00 0.00 0.00 0.00 0.00 0.00 0.00 0.00 0.00 0.01 0.00 0.00 0.00 0.00 0.01 0.00
0.00 0.00 0.00 0.00 0.00 0.00 0.00 0.00 0.00 0.00 0.00 0.00 0.00 0.00 0.00 0.00 0.00 0.00 0.00 0.00 0.00 0.00 0.00 0.00 0.00 0.00 0.00 0.00 0.00 0.00 0.00 0.00 0.00 0.00 0.00 0.00 0.00 0.01 0.01 0.00 0.00 0.00 0.00 0.00
0.00 0.00 0.00 0.00 0.00 0.00 0.00 0.00 0.00 0.00 0.00 0.00 0.00 0.00 0.00 0.00 0.00 0.00 0.00 0.00 0.00 0.00 0.00 0.00 0.00 0.00 0.00 0.00 0.00 0.00 0.00 0.00 0.00 0.00 0.00 0.00 0.00 0.00 0.00 0.01 0.01 0.00 0.00 0.00
MSLP
1010.27 1011.13 1011.91 1012.53 1012.95 1013.17 1013.22 1013.14 1013.00 1012.87 1012.77 1012.72 1012.71 1012.70 1012.66 1012.56 1012.38 1012.12 1011.81 1011.47 1011.12 1010.80 1010.51 1010.24 1009.97 1009.67 1009.35 1008.97 1008.57 1008.19 1007.87 1007.67 1007.63 1007.78 1008.12 1008.61 1009.19 1009.81 1010.40 1010.91 1011.32 1011.63 1011.89 1012.12
1011.29 1012.15 1012.90 1013.46 1013.81 1013.95 1013.93 1013.79 1013.63 1013.48 1013.39 1013.35 1013.35 1013.36 1013.32 1013.21 1013.01 1012.73 1012.40 1012.06 1011.73 1011.44 1011.20 1010.98 1010.76 1010.50 1010.16 1009.75 1009.27 1008.77 1008.30 1007.94 1007.74 1007.73 1007.94 1008.33 1008.86 1009.46 1010.07 1010.62 1011.10 1011.50 1011.83 1012.13
1012.32 1013.14 1013.83 1014.31 1014.58 1014.65 1014.56 1014.39 1014.21 1014.08 1014.01 1014.00 1014.03 1014.05 1014.01 1013.89 1013.66 1013.35 1013.00 1012.64 1012.32 1012.05 1011.85 1011.69 1011.52 1011.30 1010.99 1010.57 1010.06 1009.48 1008.92 1008.43 1008.10 1007.96 1008.04 1008.33 1008.79 1009.35 1009.95 1010.52 1011.05 1011.50 1011.88 1012.23
1013.31 1014.07 1014.67 1015.06 1015.25 1015.25 1015.12 1014.94 1014.78 1014.68 1014.67 1014.71 1014.79 1014.84 1014.81 1014.67 1014.41 1014.06 1013.67 1013.27 1012.93 1012.66 1012.48 1012.35 1012.23 1012.06 1011.79 1011.40 1010.89 1010.30 1009.69 1009.13 1008.71 1008.47 1008.45 1008.65 1009.02 1009.52 1010.09 1010.66 1011.19 1011.67 1012.07 1012.43
1014.27 1014.92 1015.42 1015.71 1015.82 1015.77 1015.63 1015.48 1015.37 1015.35 1015.42 1015.55 1015.69 1015.78 1015.76 1015.61 1015.31 1014.91 1014.46 1014.00 1013.61 1013.31 1013.12 1013.00 1012.91 1012.78 1012.56 1012.21 1011.75 1011.18 1010.57 1010.00 1009.54 1009.24 1009.15 1009.27 1009.56 1010.00 1010.51 1011.03 1011.53 1011.98 1012.37 1012.70
1015.18 1015.72 1016.10 1016.30 1016.34 1016.27 1016.15 1016.06 1016.04 1016.13 1016.31 1016.54 1016.76 1016.90 1016.91 1016.74 1016.41 1015.95 1015.41 1014.88 1014.42 1014.06 1013.82 1013.68 1013.58 1013.47 1013.29 1013.00 1012.59 1012.08 1011.52 1010.98 1010.52 1010.21 1010.08 1010.13 1010.36 1010.71 1011.14 1011.59 1012.02 1012.41 1012.74 1013.01
1016.05 1016.47 1016.74 1016.86 1016.86 1016.80 1016.73 1016.72 1016.83 1017.05 1017.36 1017.71 1018.02 1018.22 1018.24 1018.06 1017.69 1017.16 1016.55 1015.93 1015.37 1014.93 1014.61 1014.41 1014.28 1014.16 1013.99 1013.74 1013.39 1012.95 1012.46 1011.98 1011.56 1011.27 1011.12 1011.13 1011.29 1011.55 1011.88 1012.23 1012.57 1012.86 1013.10 1013.28
1016.89 1017.19 1017.37 1017.44 1017.42 1017.38 1017.39 1017.50 1017.74 1018.10 1018.55 1019.01 1019.41 1019.66 1019.71 1019.51 1019.09 1018.50 1017.80 1017.09 1016.43 1015.89 1015.48 1015.19 1014.99 1014.83 1014.66 1014.43 1014.12 1013.74 1013.32 1012.91 1012.55 1012.29 1012.15 1012.13 1012.23 1012.40 1012.63 1012.86 1013.07 1013.25 1013.38 1013.47
1017.65 1017.87 1017.99 1018.03 1018.02 1018.04 1018.15 1018.38 1018.76 1019.26 1019.83 1020.39 1020.86 1021.15 1021.20 1020.98 1020.52 1019.87 1019.10 1018.30 1017.54 1016.89 1016.37 1015.99 1015.70 1015.47 1015.26 1015.01 1014.73 1014.39 1014.04 1013.70 1013.40 1013.18 1013.05 1013.01 1013.05 1013.14 1013.26 1013.36 1013.45 1013.51 1013.52 1013.52
1018.31 1018.48 1018.57 1018.60 1018.65 1018.75 1018.96 1019.32 1019.83 1020.44 1021.11 1021.74 1022.25 1022.55 1022.59 1022.35 1021.84 1021.14 1020.31 1019.43 1018.59 1017.84 1017.22 1016.73 1016.35 1016.04 1015.76 1015.48 1015.19 1014.88 1014.57 1014.28 1014.04 1013.85 1013.74 1013.68 1013.67 1013.68 1013.70 1013.69 1013.66 1013.60 1013.52 1013.43
1018.79 1018.95 1019.05 1019.13 1019.24 1019.43 1019.76 1020.23 1020.84 1021.55 1022.27 1022.93 1023.44 1023.73 1023.74 1023.46 1022.91 1022.17 1021.29 1020.36 1019.46 1018.64 1017.94 1017.36 1016.88 1016.48 1016.14 1015.81 1015.50 1015.20 1014.91 1014.66 1014.45 1014.30 1014.19 1014.12 1014.07 1014.01 1013.94 1013.84 1013.71 1013.56 1013.40 1013.25
1019.08 1019.26 1019.40 1019.54 1019.74 1020.03 1020.46 1021.03 1021.71 1022.47 1023.21 1023.86 1024.34 1024.58 1024.54 1024.22 1023.64 1022.86 1021.96 1021.01 1020.08 1019.22 1018.46 1017.82 1017.27 1016.80 1016.39 1016.02 1015.68 1015.37 1015.10 1014.87 1014.69 1014.55 1014.45 1014.37 1014.28 1014.18 1014.04 1013.86 1013.66 1013.44 1013.23 1013.05
1019.18 1019.40 1019.60 1019.82 1020.11 1020.50 1021.01 1021.64 1022.36 1023.12 1023.84 1024.44 1024.86 1025.03 1024.94 1024.57 1023.96 1023.17 1022.27 1021.33 1020.41 1019.54 1018.77 1018.09 1017.50 1016.99 1016.53 1016.13 1015.77 1015.45 1015.19 1014.98 1014.82 1014.70 1014.60 1014.51 1014.40 1014.26 1014.07 1013.85 1013.60 1013.34 1013.11 1012.91
1019.14 1019.40 1019.66 1019.96 1020.32 1020.78 1021.35 1022.01 1022.74 1023.46 1024.12 1024.65 1024.98 1025.08 1024.92 1024.51 1023.88 1023.11 1022.24 1021.34 1020.45 1019.62 1018.87 1018.19 1017.60 1017.07 1016.61 1016.19 1015.83 1015.52 1015.27 1015.08 1014.94 1014.83 1014.74 1014.64 1014.51 1014.35 1014.14 1013.89 1013.62 1013.35 1013.11 1012.92
1019.03 1019.33 1019.64 1019.99 1020.40 1020.90 1021.49 1022.14 1022.83 1023.49 1024.06 1024.50 1024.73 1024.75 1024.53 1024.09 1023.48 1022.74 1021.92 1021.09 1020.27 1019.51 1018.81 1018.18 1017.62 1017.11 1016.66 1016.26 1015.91 1015.63 1015.40 1015.23 1015.11 1015.02 1014.93 1014.83 1014.70 1014.53 1014.31 1014.05 1013.78 1013.51 1013.29 1013.11
1018.93 1019.25 1019.58 1019.95 1020.38 1020.88 1021.45 1022.06 1022.67 1023.24 1023.71 1024.03 1024.18 1024.12 1023.87 1023.42 1022.84 1022.16 1021.42 1020.68 1019.96 1019.29 1018.67 1018.11 1017.60 1017.14 1016.73 1016.36 1016.05 1015.80 1015.60 1015.46 1015.36 1015.29 1015.22 1015.13 1015.00 1014.82 1014.60 1014.35 1014.10 1013.85 1013.64 1013.49
1018.91 1019.21 1019.54 1019.90 1020.31 1020.77 1021.28 1021.81 1022.32 1022.78 1023.14 1023.37 1023.43 1023.32 1023.05 1022.63 1022.09 1021.49 1020.86 1020.23 1019.62 1019.05 1018.53 1018.04 1017.60 1017.20 1016.84 1016.52 1016.25 1016.04 1015.88 1015.77 1015.70 1015.65 1015.59 1015.51 1015.39 1015.22 1015.02 1014.79 1014.55 1014.33 1014.15 1014.02
1018.97 1019.25 1019.54 1019.86 1020.22 1020.61 1021.03 1021.46 1021.86 1022.20 1022.46 1022.59 1022.60 1022.46 1022.19 1021.82 1021.36 1020.86 1020.34 1019.82 1019.32 1018.86 1018.42 1018.02 1017.64 1017.29 1016.98 1016.71 1016.48 1016.30 1016.18 1016.10 1016.06 1016.03 1015.99 1015.92 1015.82 1015.67 1015.49 1015.29 1015.08 1014.89 1014.74 1014.63
1019.08 1019.32 1019.57 1019.83 1020.12 1020.42 1020.74 1021.06 1021.35 1021.59 1021.75 1021.83 1021.79 1021.65 1021.42 1021.11 1020.74 1020.34 1019.93 1019.53 1019.13 1018.76 1018.40 1018.05 1017.72 1017.42 1017.14 1016.89 1016.69 1016.55 1016.45 1016.40 1016.37 1016.36 1016.35 1016.30 1016.23 1016.11 1015.96 1015.79 1015.62 1015.46 1015.34 1015.25
1019.15 1019.36 1019.56 1019.77 1019.98 1020.21 1020.43 1020.65 1020.85 1021.01 1021.10 1021.13 1021.09 1020.97 1020.79 1020.56 1020.29 1019.99 1019.69 1019.38 1019.07 1018.76 1018.45 1018.15 1017.84 1017.55 1017.28 1017.05 1016.86 1016.72 1016.63 1016.59 1016.59 1016.60 1016.60 1016.59 1016.55 1016.47 1016.36 1016.23 1016.11 1015.99 1015.90 1015.83
1019.11 1019.29 1019.46 1019.62 1019.78 1019.94 1020.10 1020.25 1020.38 1020.48 1020.55 1020.56 1020.53 1020.46 1020.34 1020.19 1020.01 1019.82 1019.60 1019.37 1019.13 1018.86 1018.58 1018.28 1017.98 1017.68 1017.40 1017.15 1016.95 1016.80 1016.71 1016.68 1016.68 1016.71 1016.74 1016.76 1016.76 1016.73 1016.68 1016.61 1016.53 1016.46 1016.40 1016.35
1018.89 1019.05 1019.20 1019.34 1019.48 1019.61 1019.73 1019.85 1019.95 1020.03 1020.10 1020.13 1020.13 1020.11 1020.07 1019.99 1019.90 1019.79 1019.65 1019.48 1019.27 1019.03 1018.76 1018.45 1018.13 1017.80 1017.49 1017.20 1016.97 1016.80 1016.70 1016.66 1016.67 1016.71 1016.77 1016.83 1016.88 1016.90 1016.91 1016.90 1016.88 1016.86 1016.84 1016.82
1018.47 1018.62 1018.77 1018.91 1019.04 1019.18 1019.31 1019.43 1019.55 1019.65 1019.74 1019.81 1019.87 1019.91 1019.93 1019.93 1019.91 1019.86 1019.78 1019.65 1019.47 1019.24 1018.96 1018.63 1018.28 1017.91 1017.56 1017.24 1016.97 1016.77 1016.64 1016.59 1016.59 1016.65 1016.73 1016.83 1016.93 1017.02 1017.10 1017.16 1017.20 1017.23 1017.25 1017.25
1017.88 1018.02 1018.17 1018.33 1018.50 1018.67 1018.83 1019.00 1019.16 1019.32 1019.46 1019.59 1019.70 1019.80 1019.89 1019.95 1019.98 1019.98 1019.93 1019.83 1019.67 1019.45 1019.16 1018.82 1018.44 1018.04 1017.65 1017.29 1016.99 1016.75 1016.59 1016.52 1016.52 1016.58 1016.69 1016.83 1016.98 1017.13 1017.27 1017.40 1017.50 1017.58 1017.64 1017.66
1017.19 1017.32 1017.47 1017.65 1017.86 1018.08 1018.32 1018.56 1018.79 1019.01 1019.22 1019.41 1019.59 1019.74 1019.87 1019.98 1020.05 1020.09 1020.07 1019.99 1019.84 1019.63 1019.34 1018.99 1018.60 1018.19 1017.78 1017.39 1017.06 1016.79 1016.61 1016.52 1016.51 1016.57 1016.70 1016.86 1017.06 1017.26 1017.46 1017.64 1017.80 1017.93 1018.02 1018.07
1016.49 1016.59 1016.74 1016.94 1017.19 1017.48 1017.79 1018.11 1018.42 1018.72 1019.00 1019.25 1019.48 1019.68 1019.85 1019.98 1020.08 1020.13 1020.13 1020.07 1019.95 1019.75 1019.48 1019.15 1018.77 1018.37 1017.95 1017.56 1017.21 1016.93 1016.73 1016.61 1016.59 1016.64 1016.77 1016.95 1017.17 1017.41 1017.66 1017.89 1018.09 1018.26 1018.38 1018.45
Thickness
5793 5780 5762 5763 5768 5763 5759 5754 5752 5759 5764 5755 5751 5754 5757 5761 5762 5761 5762 5763 5764 5765 5773 5779 5784 5789 5794 5798 5801 5804 5806 5809 5808 5803 5797 5791 5786 5784 5783 5781 5779 5775 5772 5769
5775 5757 5764 5767 5765 5758 5751 5740 5740 5749 5756 5748 5742 5744 5751 5749 5747 5745 5745 5745 5747 5749 5754 5760 5766 5771 5775 5779 5785 5791 5795 5799 5802 5802 5798 5792 5785 5780 5778 5775 5772 5769 5765 5762
5754 5751 5760 5753 5747 5736 5729 5722 5719 5719 5729 5734 5726 5722 5734 5737 5735 5731 5732 5732 5733 5735 5738 5743 5749 5754 5759 5762 5768 5774 5780 5787 5792 5795 5794 5788 5781 5773 5769 5765 5762 5761 5759 5756
5751 5749 5743 5736 5727 5718 5706 5717 5711 5706 5698 5697 5707 5691 5715 5714 5704 5702 5708 5713 5716 5721 5726 5730 5735 5740 5745 5749 5755 5760 5766 5773 5780 5785 5783 5778 5770 5761 5759 5756 5753 5752 5751 5748
5728 5730 5722 5713 5711 5711 5706 5711 5704 5698 5687 5681 5690 5683 5686 5688 5670 5674 5684 5695 5703 5709 5715 5719 5724 5728 5733 5737 5741 5746 5752 5758 5764 5770 5771 5768 5761 5754 5749 5745 5741 5739 5739 5738
5732 5731 5719 5707 5711 5713 5709 5704 5703 5700 5684 5661 5671 5669 5653 5649 5649 5657 5668 5679 5689 5697 5704 5709 5713 5716 5719 5724 5728 5733 5738 5742 5747 5751 5752 5750 5745 5741 5735 5732 5727 5725 5725 5724
5721 5716 5714 5708 5696 5697 5695 5680 5668 5662 5656 5650 5658 5647 5622 5633 5642 5647 5654 5665 5676 5683 5689 5693 5697 5700 5704 5710 5715 5719 5723 5726 5730 5732 5732 5731 5729 5727 5723 5720 5718 5715 5714 5713
5716 5698 5697 5695 5684 5674 5678 5670 5645 5631 5634 5642 5649 5625 5615 5623 5631 5638 5645 5654 5663 5669 5674 5678 5681 5685 5690 5695 5700 5704 5707 5709 5712 5714 5713 5713 5712 5711 5710 5708 5707 5705 5705 5705
5707 5692 5697 5693 5689 5675 5663 5656 5657 5644 5642 5637 5630 5617 5617 5619 5619 5623 5631 5640 5646 5653 5659 5664 5668 5672 5676 5681 5685 5689 5692 5693 5695 5697 5697 5696 5696 5696 5696 5696 5696 5696 5695 5695
5711 5696 5691 5691 5685 5674 5664 5655 5649 5634 5621 5618 5618 5605 5592 5598 5602 5609 5617 5624 5633 5640 5647 5653 5656 5660 5665 5669 5672 5676 5678 5679 5680 5683 5683 5684 5684 5684 5684 5685 5685 5685 5686 5686
5710 5700 5690 5681 5662 5652 5652 5646 5639 5634 5625 5604 5596 5590 5588 5588 5593 5599 5607 5615 5622 5629 5636 5642 5646 5651 5656 5660 5663 5665 5667 5669 5670 5671 5672 5673 5674 5675 5676 5676 5676 5677 5678 5678
5708 5697 5688 5670 5669 5666 5653 5642 5635 5617 5607 5603 5591 5584 5587 5587 5591 5596 5603 5609 5616 5624 5630 5635 5640 5644 5649 5652 5655 5657 5658 5660 5662 5663 5664 5665 5666 5668 5668 5670 5671 5673 5673 5675
5696 5694 5677 5660 5659 5660 5650 5644 5639 5628 5612 5598 5586 5581 5589 5591 5594 5598 5602 5609 5614 5621 5627 5633 5637 5641 5644 5647 5650 5652 5654 5656 5658 5659 5660 5661 5662 5663 5665 5667 5669 5672 5673 5675
5693 5692 5672 5652 5644 5649 5644 5640 5636 5625 5606 5595 5586 5584 5591 5594 5596 5601 5606 5611 5617 5623 5629 5633 5637 5642 5645 5647 5649 5650 5652 5654 5656 5657 5658 5659 5660 5662 5664 5666 5668 5669 5671 5673
5705 5691 5678 5668 5664 5659 5650 5641 5634 5623 5613 5600 5594 5593 5596 5601 5604 5608 5613 5618 5624 5630 5634 5638 5641 5644 5647 5648 5649 5651 5652 5654 5655 5656 5656 5657 5659 5660 5662 5663 5665 5667 5668 5671
5708 5694 5685 5672 5668 5664 5654 5647 5640 5630 5623 5614 5610 5607 5613 5616 5617 5617 5621 5625 5629 5633 5638 5642 5644 5647 5649 5650 5650 5652 5653 5654 5655 5655 5655 5656 5657 5658 5659 5660 5661 5662 5663 5663
5707 5697 5685 5679 5674 5666 5651 5650 5643 5637 5633 5627 5618 5618 5625 5625 5625 5626 5629 5632 5634 5637 5640 5644 5646 5649 5651 5653 5653 5652 5653 5653 5653 5652 5652 5652 5653 5653 5653 5654 5655 5655 5654 5654
5706 5699 5691 5686 5679 5656 5653 5663 5655 5646 5642 5640 5637 5636 5636 5636 5636 5638 5639 5638 5638 5640 5642 5645 5648 5650 5653 5656 5656 5655 5654 5652 5650 5650 5649 5649 5648 5648 5648 5648 5647 5646 5646 5644
5711 5698 5689 5686 5675 5665 5661 5665 5661 5653 5647 5650 5647 5647 5648 5649 5645 5642 5646 5646 5645 5645 5647 5649 5653 5654 5655 5656 5657 5656 5654 5651 5648 5647 5647 5646 5645 5644 5643 5642 5641 5639 5638 5636
5713 5706 5691 5687 5676 5666 5669 5674 5673 5660 5649 5659 5656 5653 5654 5652 5638 5638 5649 5651 5651 5651 5652 5653 5656 5657 5656 5658 5659 5656 5653 5650 5647 5646 5646 5646 5644 5642 5639 5637 5636 5634 5632 5629
5713 5705 5694 5690 5684 5680 5681 5679 5672 5652 5654 5665 5664 5660 5657 5651 5648 5651 5656 5656 5656 5656 5656 5657 5658 5657 5658 5661 5661 5657 5654 5651 5649 5649 5647 5646 5644 5642 5638 5635 5632 5629 5627 5624
5717 5711 5706 5697 5688 5676 5687 5679 5673 5671 5676 5673 5668 5665 5660 5659 5660 5660 5660 5659 5659 5659 5659 5659 5659 5660 5663 5665 5663 5659 5656 5656 5655 5653 5650 5648 5645 5642 5638 5633 5629 5625 5621 5617
5723 5720 5711 5705 5694 5699 5695 5691 5689 5686 5682 5677 5672 5668 5666 5663 5662 5662 5663 5662 5663 5663 5663 5663 5663 5663 5666 5668 5667 5663 5663 5663 5660 5657 5653 5650 5647 5641 5636 5630 5625 5621 5616 5611
5739 5733 5718 5712 5709 5704 5701 5699 5692 5689 5686 5680 5676 5672 5669 5666 5665 5665 5666 5665 5665 5666 5667 5667 5667 5665 5667 5671 5672 5670 5669 5668 5665 5660 5656 5652 5647 5641 5635 5629 5623 5617 5611 5606
5739 5729 5721 5717 5718 5710 5705 5702 5696 5692 5689 5683 5679 5676 5672 5669 5667 5668 5668 5666 5667 5668 5670 5670 5668 5667 5670 5674 5674 5673 5671 5670 5667 5664 5659 5654 5648 5642 5634 5626 5618 5614 5607 5602
5747 5735 5725 5724 5730 5718 5711 5709 5705 5696 5690 5686 5681 5677 5675 5673 5670 5670 5669 5669 5669 5670 5671 5671 5671 5671 5673 5674 5674 5673 5672 5671 5668 5664 5659 5654 5649 5643 5637 5628 5620 5612 5609 5604